Flag for Afghanistan Weather past 2 weeks in Ghazni, Afghanistan

Now
45 °F

Fog.


Feels Like: 45 °F
Forecast: 16 / 38 °F
Wind: No wind

Location: Peshawar Airport

Current Time: Dec 23, 2014 at 3:22:10 AM

Latest Report: Dec 23, 2014 at 2:30 AM


Visibility: 0 mi

Pressure: 30.04 "Hg

Humidity: 87%

Dew point: 41 °F

Location of GhazniLocation

Historic Weather in Ghazni — Graph

°F

Ghazni temperature yesterday

Maximum temperature yesterday: 57 °F (at 1:30 PM)
Minimum temperature yesterday: 39 °F (at 4:30 AM)
Average temperature yesterday: 49 °F

Past Weeks' High & Low Weather Summary

 TemperatureHumidityPressure
High73 °F (Dec 8, 1:30 PM)100% (Dec 8, 11:30 AM)30.27 "Hg (Dec 8, 11:30 AM)
Low39 °F (Dec 10, 4:30 AM)23% (Dec 11, 12:30 PM)29.95 "Hg (Dec 22, 4:30 PM)
Average51 °F65%30.09 "Hg
* Reported Dec 8 1:30 AM — Dec 23 1:30 AM, Ghazni, Weather by CustomWeather, © 2014

Note: Actual official high and low records may vary slightly from our data, if they occured in-between our weather recording intervals... More about our weather records

Advertising

Ghazni weather history for previous 24 hours

 ConditionsComfort  
Time TempWeatherWind HumidityBarometerVisibility
1:30 AM
Dec 23
45 °FFog.No wind87%30.04 "Hg1 mi
12:30 AM45 °FFog.No wind87%30.04 "Hg0 mi
11:30 PM
Dec 22
45 °FFog.No wind87%30.04 "Hg0 mi
10:30 PM45 °FFog.No wind87%30.04 "Hg1 mi
9:30 PM45 °FFog.No wind93%30.01 "Hg1 mi
8:30 PM46 °FFog.No wind100%30.01 "Hg1 mi
7:30 PM48 °FFog.No wind87%29.98 "Hg1 mi
6:30 PM52 °FFog.No wind82%29.98 "Hg1 mi
5:30 PM54 °FPassing clouds.No wind77%29.98 "Hg1 mi
4:30 PM55 °FRefreshingly cool.N/A55%29.95 "HgN/A
3:30 PM57 °FRefreshingly cool.N/A51%29.98 "HgN/A
2:30 PM57 °FBroken clouds.No wind41%29.98 "Hg0 mi
1:30 PM57 °FBroken clouds.No wind41%29.98 "Hg0 mi
12:30 PMN/APartly sunny.No windN/A30.01 "Hg0 mi
11:30 AM54 °FPartly sunny.No wind47%30.04 "Hg1 mi
10:30 AM54 °FScattered clouds.No wind47%30.04 "Hg1 mi
9:30 AM50 °FBroken clouds.No wind58%30.04 "Hg1 mi
8:30 AM46 °FBroken clouds.No wind62%30.04 "Hg5 mi
7:30 AM43 °FQuite cool.N/A71%30.04 "HgN/A
4:30 AM39 °FFog.No wind81%30.07 "Hg1 mi
Weather by CustomWeather, © 2014

See weather overviewHow to use our weather pages